Hourly Data Report for September 22, 2017

All times are specified in Local Standard Time (LST). Add 1 hour to adjust for Daylight Saving Time where and when it is observed.

SUSSEX FOUR CORNERS
NEW BRUNSWICK

45°44'30.048" N
65°31'44.039" W
47.00 m
8105210
71656
ASF

Download Data

Hourly Data (September 2017)
Hourly Data Report for September 22, 2017
Temp Definition
°C
Dew Point Temp Definition
°C
Rel Hum Definition
%
Wind Dir Definition
10's deg

Wind Spd Definition
km/h
Visibility Definition
km
Stn Press Definition
kPa
Hmdx Definition


Wind Chill Definition


Weather Definition


TIME
00:00 7.8 6.5 91 5 2   101.63     LegendNANA
01:00 7.2 6.3 94 0 1   101.61     LegendNANA
02:00 6.1 5.6 96 3 6   101.60     LegendNANA
03:00 5.7 5.2 97 9 2   101.60     LegendNANA
04:00 5.3 4.9 97 1 4   101.59     LegendNANA
05:00 4.6 4.3 98 35 4   101.55     LegendNANA
06:00 4.7 4.5 99 3 5   101.58     LegendNANA
07:00 4.6 4.5 99 6 2   101.62     LegendNANA
08:00 6.1 6.0 100 4 5   101.66     LegendNANA
09:00 9.0 9.0 100 2 3   101.64     LegendNANA
10:00 14.8 10.4 75 8 5   101.58     LegendNANA
11:00 17.7 10.6 63 2 6   101.54     LegendNANA
12:00 20.1 10.6 54 2 6   101.46     LegendNANA
13:00 22.2 9.5 44 7 4   101.41     LegendNANA
14:00 22.7 9.3 43 3 8   101.35     LegendNANA
15:00 23.3 9.3 41 36 8   101.29     LegendNANA
16:00 23.2 8.5 39 1 9   101.25     LegendNANA
17:00 21.7 8.1 42 1 11   101.24     LegendNANA
18:00 20.2 7.4 44 2 3   101.25     LegendNANA
19:00 16.4 9.8 65 7 5   101.25     LegendNANA
20:00 14.9 10.2 74 9 5   101.24     LegendNANA
21:00 12.3 9.7 84 7 5   101.19     LegendNANA
22:00 10.6 8.8 88 1 2   101.23     LegendNANA
23:00 9.1 8.3 95 36 3   101.19     LegendNANA

Notes on Data Quality.

Legend

  • E = Estimated
  • M = Missing
  • NA = Not Available
  • ‡ = Partner data that is not subject to review by the National Climate Archives
Date modified: